Location: Invercargill
(46.4000°S, 168.3500°E)
Time: 18:48:30
(UTC+12:00)

Cosmos 2333 Rocket - Pass Details

Date: 14 May 2021
Orbit: 839 x 863 km, 70.8° (Epoch: 14 June)

Event Time Altitude Azimuth Distance (km) Brightness Sun altitude
Rises 18:36:37 0° 322° (NW) 3,395 6.3 -12.4°
Reaches altitude 10° 18:39:06 10° 317° (NW) 2,466 5.5 -12.8°
Maximum altitude 18:44:40 56° 239° (WSW) 1,005 2.8 -13.7°
Drops below altitude 10° 18:50:18 10° 160° (SSE) 2,493 4.3 -14.7°
Enters shadow 18:51:54 - 156° (SSE) 3,086 4.8 -14.9°
